Tracking 25612 objects as of 19-May-2022
HD Live streaming from Space Station
objects crossing your sky now

COSMOS 2251 DEB

Track COSMOS 2251 DEB now!
10-day predictions


NORAD ID: 34390
Int'l Code: 1993-036QF
Perigee: 653.4 km
Apogee: 753.0 km
Inclination: 74.1 °
Period: 98.7 minutes
Semi major axis: 7074 km
RCS: 0.0402 m2 (small)
Launch date: June 16, 1993
Source: Commonwealth of Independent States (former USSR) (CIS)
Launch site: PLESETSK MISSILE AND SPACE COMPLEX (PKMTR)

Note: This is SATELLITE DEBRIS
aabbcc
Your satellite tracking list
Your tracking list is empty




NASA's NSSDC Master Catalog

Two Line Element Set (TLE):
1 34390U 93036QF  22138.86697028  .00006483  00000-0  13356-2 0  9993
2 34390  74.0911 302.7314 0070397 280.7958 149.8999 14.59118399700150
Source of the keplerian elements: AFSPC